Flag for U.S.A. Weather past 2 weeks in Long Beach, California, U.S.A.

Now
72 °F

Scattered clouds.


Feels Like: 73 °F
Forecast: 68 / 76 °F
Wind: 10 mph from Northwest

Location: Long Beach Airport

Current Time: Sep 18, 2014 at 8:51:02 PM

Latest Report: Sep 18, 2014 at 7:53 PM


Visibility: 10 mi

Pressure: 29.83 "Hg

Humidity: 76%

Dew point: 64 °F

Location of Long BeachLocation

Historic Weather in Long Beach — Graph

°F

Long Beach temperature yesterday

Maximum temperature yesterday: 93 °F (at 12:53 PM)
Minimum temperature yesterday: 73 °F (at 11:53 PM)
Average temperature yesterday: 82 °F

Past Weeks' High & Low Weather Summary

 TemperatureHumidityPressure
High99 °F (Sep 14, 1:53 PM)90% (Sep 10, 1:53 AM)29.92 "Hg (Sep 10, 1:53 AM)
Low66 °F (Sep 10, 6:53 AM)25% (Sep 17, 2:53 PM)29.67 "Hg (Sep 14, 5:53 PM)
Average78 °F62%29.79 "Hg
* Reported Sep 3 6:53 PM — Sep 18 6:53 PM, Long Beach, Weather by CustomWeather, © 2014

Note: Actual official high and low records may vary slightly from our data, if they occured in-between our weather recording intervals... More about our weather records

Advertising

Long Beach weather history for previous 24 hours

 ConditionsComfort  
Time TempWeatherWind HumidityBarometerVisibility
6:53 PM
Sep 18
73 °FSunny.10 mph76%29.82 "Hg10 mi
5:53 PM75 °FScattered clouds.13 mph71%29.80 "Hg10 mi
4:53 PM79 °FSunny.10 mph62%29.80 "Hg10 mi
3:53 PM82 °FSunny.13 mph53%29.80 "Hg10 mi
2:53 PM81 °FSunny.10 mph60%29.82 "Hg10 mi
1:53 PM80 °FPassing clouds.12 mph60%29.84 "Hg10 mi
12:53 PM81 °FSunny.9 mph60%29.85 "Hg10 mi
11:53 AM77 °FPassing clouds.8 mph66%29.87 "Hg10 mi
11:00 AM75 °FOvercast.8 mph69%29.89 "Hg10 mi
9:53 AM76 °FPassing clouds.6 mph64%29.88 "Hg10 mi
8:53 AM73 °FSunny.8 mph69%29.88 "Hg10 mi
7:53 AM70 °FSunny.No wind76%29.85 "Hg10 mi
6:53 AM67 °FClear.No wind81%29.84 "Hg10 mi
5:53 AM67 °FClear.3 mph81%29.81 "Hg10 mi
4:53 AM69 °FClear.6 mph73%29.80 "Hg10 mi
3:53 AM69 °FClear.3 mph76%29.79 "Hg10 mi
2:53 AM70 °FClear.5 mph64%29.79 "Hg10 mi
1:53 AM71 °FClear.3 mph71%29.79 "Hg10 mi
12:53 AM73 °FClear.3 mph57%29.79 "Hg10 mi
11:53 PM
Sep 17
73 °FClear.3 mph69%29.79 "Hg10 mi
10:53 PM74 °FClear.6 mph62%29.78 "Hg10 mi
9:53 PM74 °FClear.No wind62%29.77 "Hg10 mi
8:53 PM76 °FClear.3 mph58%29.75 "Hg10 mi
Weather by CustomWeather, © 2014

See weather overviewHow to use our weather pages